Location: Newark
(7.0858°N, 171.3717°E)
Time: 07:59:00
(UTC+00:00)

Courier 1B - Pass Details

Date: 02 December 2020
Orbit: 962 x 1209 km, 28.3° (Epoch: 20 January)

Event Time Altitude Azimuth Distance (km) Brightness Sun altitude
Rises 12:59:33 0° 317° (NW) 3,791 - -72.8°
Reaches altitude 10° 13:03:15 10° 335° (NNW) 2,887 - -72.3°
Maximum altitude 13:07:51 18° 16° (NNE) 2,408 - -71.7°
Drops below altitude 10° 13:12:36 10° 57° (ENE) 3,009 - -71.0°
Sets 13:16:34 0° 75° (ENE) 4,016 - -70.4°
